TimePST,TemperatureF,Dew PointF,Humidity,Sea Level PressureIn,VisibilityMPH,Wind Direction,Wind SpeedMPH,Gust SpeedMPH,PrecipitationIn,Events,Conditions,WindDirDegrees,DateUTC
12:00 AM,46.6,43.3,88,30.24,-9999.0,West,4.6,-,N/A,,Unknown,260,2012-12-10 08:00:00
1:00 AM,46.6,43.5,89,30.24,-9999.0,West,4.6,-,N/A,,Unknown,260,2012-12-10 09:00:00
2:00 AM,46.0,43.7,92,30.22,-9999.0,West,3.5,-,N/A,,Unknown,270,2012-12-10 10:00:00
3:00 AM,48.4,43.9,84,30.22,-9999.0,West,10.4,-,N/A,,Unknown,280,2012-12-10 11:00:00
4:00 AM,48,43,77,30.20,,West,13.8,,,,,280,2012-12-10 12:00:00
4:00 AM,48.4,43.2,82,30.20,-9999.0,West,13.8,-,N/A,,Unknown,280,2012-12-10 12:00:00
5:00 AM,48.2,42.6,81,30.19,-9999.0,West,9.2,-,N/A,,Unknown,270,2012-12-10 13:00:00
6:00 AM,47.5,43.0,84,30.19,-9999.0,WNW,4.6,-,N/A,,Unknown,290,2012-12-10 14:00:00
8:00 AM,46.9,43.3,87,30.14,-9999.0,North,18.4,-,N/A,,Unknown,0,2012-12-10 16:00:00
9:00 AM,46.4,42.8,87,30.12,-9999.0,North,35.7,-,N/A,,Unknown,0,2012-12-10 17:00:00
10:00 AM,48,44,82,30.10,,Calm,Calm,,,,,180,2012-12-10 18:00:00
10:00 AM,48.2,44.2,86,30.10,-9999.0,North,20.7,-,N/A,,Unknown,0,2012-12-10 18:00:00
11:00 AM,49.6,43.7,80,30.08,-9999.0,North,29.9,-,N/A,,Unknown,0,2012-12-10 19:00:00
12:00 PM,49.1,43.0,79,30.04,-9999.0,North,25.3,-,N/A,,Unknown,0,2012-12-10 20:00:00
1:00 PM,48.7,42.8,80,30.02,-9999.0,North,24.2,-,N/A,,Unknown,0,2012-12-10 21:00:00
2:00 PM,48.4,43.7,84,29.96,-9999.0,North,21.9,-,N/A,,Unknown,0,2012-12-10 22:00:00
3:00 PM,49.3,41.4,74,29.89,-9999.0,North,24.2,-,N/A,,Unknown,0,2012-12-10 23:00:00
4:00 PM,49,41,66,29.83,,Calm,Calm,,,,,180,2012-12-11 00:00:00
4:00 PM,48.7,41.2,75,29.83,-9999.0,North,20.7,-,N/A,,Unknown,0,2012-12-11 00:00:00
5:00 PM,45.0,36.9,73,29.78,-9999.0,North,26.5,-,N/A,,Unknown,0,2012-12-11 01:00:00
6:00 PM,43.7,38.5,82,29.76,-9999.0,North,20.7,-,N/A,,Unknown,0,2012-12-11 02:00:00
7:00 PM,44.4,38.7,80,29.65,-9999.0,North,19.6,-,N/A,,Unknown,0,2012-12-11 03:00:00
8:00 PM,45.7,40.8,83,29.63,-9999.0,North,20.7,-,N/A,,Unknown,0,2012-12-11 04:00:00
10:00 PM,49,41,65,29.57,,Calm,Calm,,,,,250,2012-12-11 06:00:00
10:00 PM,48.9,40.8,74,29.57,-9999.0,North,28.8,-,N/A,,Unknown,0,2012-12-11 06:00:00
11:00 PM,47.5,40.1,76,29.57,-9999.0,North,31.1,-,N/A,,Unknown,0,2012-12-11 07:00:00